Augusta, GA

10:20 PM EDT on April 28, 2017 (GMT -0400)
Daniel

Weather History for KDNL - December, 2012

Change the Weather History Date:

Friday, December 14, 2012

  Actual Average Record
Temperature  
Mean Temperature 47 °F -  
Max Temperature 59 °F 56 °F 75 °F (2015)
Min Temperature 34 °F 38 °F 17 °F (2010)
Degree Days  
Heating Degree Days 18    
Month to date heating degree days 101  
Moisture  
Dew Point 36 °F    
Average Humidity 69    
Maximum Humidity 92    
Minimum Humidity 44    
Precipitation  
Precipitation 0.00 in - - ()
Month to date precipitation 0.66  
Year to date precipitation 40.91  
Sea Level Pressure  
Sea Level Pressure 30.31 in    
Wind  
Wind Speed 2 mph (North)    
Max Wind Speed 12 mph    
Max Gust Speed 14 mph    
Visibility 10 miles    
Events      
Averages and records for this station are not official NWS values.
T = Trace of Precipitation, MM = Missing Value Source: NWS Daily Summary

Daily Weather History Graph

Daily Weather History Graph

Search for Another Location

Airport or City:

Trip Planner

Search our weather history database for the weather conditions in past years. The results will help you decide how hot, cold, wet, or windy it might be!

Date:

Astronomy

Dec. 14, 2012 Rise Set
Actual Time 7:24 AM EST 5:21 PM EST
Civil Twilight 6:56 AM EST 5:49 PM EST
Nautical Twilight 6:25 AM EST 6:20 PM EST
Astronomical Twilight 5:55 AM EST 6:50 PM EST
Moon 8:30 AM EST (12/14) 7:09 PM EST (12/14)
Length of Visible Light 10h 52m
Length of Day
9h 57m
Waxing Crescent, 3% of the Moon is Illuminated
Dec 14
Waxing Crescent
Dec 20
First Quarter
Dec 28
Full
Jan 4
Last Quarter
Jan 11
New

Hourly Weather History & Observations

Time (EST) Temp. Windchill Dew Point Humidity Pressure Visibility Wind Dir Wind Speed Gust Speed Precip Events Conditions
12:53 AM 42.1 °F 40.2 °F 35.1 °F 76% 30.35 in 10.0 mi North 3.5 mph - N/A   Clear
1:53 AM 39.0 °F 35.7 °F 35.1 °F 86% 30.33 in 10.0 mi North 4.6 mph - N/A   Clear
2:53 AM 39.0 °F 34.8 °F 34.0 °F 82% 30.32 in 10.0 mi North 5.8 mph - N/A   Clear
3:53 AM 37.0 °F 33.3 °F 34.0 °F 89% 30.33 in 10.0 mi North 4.6 mph - N/A   Clear
4:53 AM 37.0 °F 33.3 °F 33.1 °F 86% 30.34 in 10.0 mi NNW 4.6 mph - N/A   Clear
5:53 AM 36.0 °F 29.0 °F 33.1 °F 89% 30.36 in 10.0 mi North 9.2 mph - N/A   Clear
6:53 AM 35.1 °F 27.9 °F 32.0 °F 89% 30.35 in 10.0 mi North 9.2 mph - N/A   Clear
7:53 AM 35.1 °F 31.0 °F 32.0 °F 89% 30.38 in 10.0 mi NNW 4.6 mph - N/A   Clear
8:53 AM 39.0 °F - 33.1 °F 79% 30.40 in 10.0 mi Calm Calm - N/A   Clear
9:53 AM 45.0 °F - 35.1 °F 68% 30.40 in 10.0 mi Calm Calm - N/A   Clear
10:53 AM 50.0 °F - 36.0 °F 59% 30.39 in 10.0 mi Calm Calm - N/A   Clear
11:53 AM 53.1 °F - 37.0 °F 55% 30.36 in 10.0 mi Calm Calm - N/A   Clear
12:53 PM 55.0 °F - 36.0 °F 49% 30.32 in 10.0 mi Variable 3.5 mph - N/A   Clear
1:53 PM 55.9 °F - 37.0 °F 49% 30.29 in 10.0 mi Calm Calm - N/A   Clear
2:53 PM 59.0 °F - 37.0 °F 44% 30.25 in 10.0 mi Calm Calm - N/A   Clear
3:53 PM 57.9 °F - 37.0 °F 46% 30.23 in 10.0 mi Calm Calm - N/A   Clear
4:53 PM 57.0 °F - 37.9 °F 49% 30.25 in 10.0 mi Calm Calm - N/A   Clear
5:53 PM 53.1 °F - 39.0 °F 59% 30.25 in 10.0 mi Calm Calm - N/A   Clear
6:53 PM 51.1 °F - 39.9 °F 66% 30.25 in 10.0 mi Calm Calm - N/A   Clear
7:53 PM 48.9 °F - 39.0 °F 69% 30.25 in 10.0 mi Calm Calm - N/A   Clear
8:53 PM 48.9 °F - 39.9 °F 71% 30.27 in 10.0 mi Calm Calm - N/A   Clear
9:53 PM 48.9 °F - 35.1 °F 59% 30.26 in 10.0 mi NE 4.6 mph - N/A   Clear
10:53 PM 46.9 °F - 35.1 °F 63% 30.25 in 10.0 mi East 3.5 mph - N/A   Clear
11:53 PM 45.0 °F - 37.9 °F 76% 30.25 in 10.0 mi Calm Calm - N/A   Clear